Wind_Speed
32 32 33 34 34 33 32 32 32 33 33 32 32 32 33 35 36 37 38 39 39 39 39 38 38 38 38 38 38 37 37 36 36 36 36 36 35 35 34 35 35 36 35 35 35 35 36 37 37 36 35 35 36 36 36 36 36 36 37 38 39 40 41 43 48 51 51 48 48 48 47 46 44 41 38 37 37 38 39 39 40 40 41 41 39
33 32 31 32 32 32 32 31 31 31 30 30 29 29 28 29 30 31 32 32 33 33 34 34 35 37 37 37 37 36 36 35 35 35 35 35 34 34 33 34 34 34 35 34 34 34 35 37 37 36 35 36 37 37 37 36 37 37 37 38 39 39 40 42 45 49 50 48 47 47 48 47 45 42 39 36 36 37 38 38 38 39 39 40 40
35 35 34 33 33 33 33 32 31 31 30 30 30 30 29 28 28 28 28 29 30 32 33 34 35 36 37 37 38 37 37 36 36 36 36 36 36 36 35 36 36 36 36 36 36 36 37 38 39 38 39 39 39 39 40 39 39 40 40 40 41 40 40 42 44 47 49 48 47 47 47 47 45 43 41 38 37 37 37 37 37 38 39 39 40
40 40 39 38 37 37 36 35 34 33 33 32 32 32 31 31 31 30 29 29 29 31 32 34 36 37 38 39 39 39 39 39 39 39 39 40 40 40 39 40 40 40 40 40 40 40 42 42 43 43 43 44 43 43 42 42 42 42 42 42 43 43 43 44 45 46 48 48 47 46 47 47 46 45 43 42 40 39 39 39 38 39 39 41 42
46 45 45 44 43 43 42 41 39 39 38 38 37 36 36 35 34 33 32 32 31 31 32 33 34 36 38 40 41 42 42 43 43 43 43 44 44 44 44 44 44 44 44 44 45 46 47 47 48 48 48 48 47 46 46 45 45 45 46 45 46 46 46 47 47 47 48 49 48 46 47 48 48 47 46 46 45 44 43 43 42 41 41 42 43
51 51 51 51 50 49 49 48 47 46 46 46 45 43 42 40 39 38 37 36 35 35 34 34 34 35 36 37 39 41 42 43 44 45 45 45 46 47 47 47 48 48 48 49 49 50 51 51 51 50 50 50 49 49 48 48 47 47 48 47 47 47 47 47 48 48 49 50 50 49 49 50 50 50 49 49 49 49 49 48 47 45 45 43 42
55 54 55 55 55 55 54 52 51 51 51 52 52 52 50 48 46 45 44 43 42 41 40 39 39 38 38 38 39 40 41 43 44 44 45 46 47 47 47 48 48 49 50 50 51 51 51 51 51 51 51 51 51 50 50 50 49 49 49 49 48 48 48 47 48 48 49 50 51 51 51 51 52 52 52 52 53 53 52 52 50 49 47 46 44
54 55 55 56 55 55 55 54 53 52 52 52 54 56 57 57 56 55 53 52 50 49 48 47 46 45 44 44 44 44 44 45 45 46 47 48 49 48 48 49 49 49 50 50 50 51 51 51 51 51 51 51 51 52 52 52 52 52 51 51 51 50 50 49 49 50 50 51 51 51 51 52 52 53 53 53 54 54 52 52 52 51 49 48 47
51 52 52 53 53 54 54 53 53 52 51 51 51 52 54 56 58 59 60 60 59 58 57 56 55 54 52 50 49 47 47 47 48 48 49 50 50 51 51 52 52 52 52 52 52 52 52 52 52 52 52 53 52 53 53 53 54 54 53 53 54 54 53 53 52 52 52 52 52 52 52 52 52 53 54 54 54 53 51 51 52 50 49 50 50
48 48 49 50 51 52 53 53 52 52 51 51 50 50 50 51 53 55 57 60 62 63 63 63 62 61 60 58 56 54 52 52 51 51 52 52 52 53 53 53 54 54 54 55 55 55 55 55 55 55 55 55 54 54 55 55 55 56 55 55 56 57 57 56 56 55 56 56 55 54 54 54 53 52 54 54 53 53 52 52 52 51 50 52 51
48 48 48 48 49 50 52 53 53 52 52 51 51 51 51 51 51 51 52 54 56 58 60 61 62 62 62 61 60 59 58 58 56 56 56 56 55 56 56 55 55 55 55 56 56 56 57 57 58 58 58 57 57 56 56 56 56 57 57 57 58 58 59 59 59 59 59 59 58 57 57 56 54 53 54 54 53 53 53 53 53 53 52 53 52
50 50 50 49 49 49 50 51 52 53 53 52 52 52 52 52 51 51 51 51 51 51 53 54 56 56 57 57 56 56 56 57 57 58 58 58 58 59 59 58 58 58 57 58 58 58 58 59 59 60 60 60 60 59 59 59 59 59 59 59 59 59 59 59 60 60 60 61 61 60 60 60 58 56 55 55 55 55 55 55 55 54 54 53 53
52 52 52 52 52 51 51 50 51 51 52 52 52 52 52 52 52 52 51 51 50 49 49 49 50 51 52 53 53 53 54 54 55 56 56 57 57 59 60 59 60 60 60 60 60 60 61 61 62 61 61 61 62 62 62 61 61 61 61 61 60 60 59 59 59 59 59 59 60 61 62 62 62 60 58 58 58 58 58 58 57 56 56 55 54
54 53 52 51 52 52 52 52 52 51 50 50 51 51 52 52 52 51 51 51 51 50 49 49 49 49 51 52 52 53 54 55 55 55 56 56 56 57 58 59 59 60 60 61 61 61 62 63 63 63 63 63 63 63 63 63 63 63 63 62 62 61 61 61 60 60 59 59 60 61 61 61 62 62 61 61 61 61 61 61 60 59 59 58 56
58 57 55 53 52 51 51 52 52 52 51 49 49 49 50 50 51 51 51 51 51 51 50 50 49 49 50 50 51 53 54 55 56 57 56 56 56 56 57 57 58 58 58 58 58 59 59 60 61 61 62 62 61 61 62 62 63 64 64 64 64 63 63 63 62 63 62 62 62 62 62 61 62 62 61 61 62 62 62 62 62 62 62 61 60
59 59 59 57 56 54 52 51 51 51 51 50 49 48 48 48 49 50 50 50 50 50 50 50 50 49 49 49 50 51 52 53 54 55 55 55 54 54 54 55 55 56 56 55 55 55 55 56 57 57 58 58 58 59 59 61 62 63 64 65 65 66 65 64 64 65 64 65 65 64 64 63 63 63 63 62 63 63 62 62 62 64 64 64 63
57 58 58 58 58 57 56 54 52 51 51 51 51 50 49 49 48 48 49 49 49 49 50 50 50 49 49 49 49 48 49 50 51 52 53 53 53 53 53 53 53 53 53 53 53 53 53 54 55 55 56 56 56 57 58 59 61 62 63 64 65 66 65 64 65 65 65 65 66 66 66 66 65 65 65 64 64 63 62 63 65 65 64 64 65
60 58 57 57 58 57 57 56 55 54 53 52 52 52 53 52 51 51 51 50 49 49 49 49 50 51 51 50 49 48 49 49 49 50 50 51 51 51 51 51 51 51 51 51 51 51 51 52 53 54 55 56 56 57 58 59 61 62 63 63 64 65 64 63 64 65 65 65 66 66 67 67 66 66 65 65 65 64 64 65 65 64 63 64 65
62 61 59 58 58 57 57 56 56 56 55 54 53 53 53 54 54 54 54 53 53 52 51 51 51 52 51 51 50 50 50 49 49 49 50 50 50 51 51 51 50 50 50 50 50 50 50 51 52 53 54 55 56 57 58 60 61 63 64 65 66 66 65 64 65 65 65 66 67 67 67 67 67 66 66 65 65 64 64 65 63 63 64 64 64
60 60 60 59 59 58 58 57 57 56 56 56 55 55 55 55 55 55 55 55 56 55 55 55 55 54 52 51 52 52 52 51 50 49 49 50 51 51 51 51 51 50 50 50 50 50 50 50 51 52 53 54 55 56 57 58 60 62 63 65 66 67 66 66 67 67 67 68 67 67 68 67 67 67 67 66 65 64 63 62 61 61 62 62 61
56 56 56 57 57 58 58 58 58 56 56 56 56 56 56 56 56 56 55 55 55 55 56 56 56 56 54 54 55 56 56 54 51 50 50 49 50 51 51 52 51 51 51 51 51 51 51 51 51 51 52 53 53 54 55 56 57 59 60 61 63 64 65 66 67 67 68 68 68 68 68 67 67 67 67 66 66 65 63 61 59 59 60 60 60
52 52 52 52 53 54 55 56 57 57 56 55 55 55 56 56 57 57 56 56 55 54 54 54 55 56 56 57 57 57 56 54 52 51 50 50 50 50 51 51 51 52 52 52 51 51 51 51 51 51 52 52 52 53 54 55 56 57 58 59 60 61 62 64 64 65 66 67 67 67 67 67 66 66 65 65 65 63 62 61 59 58 59 60 59
50 50 50 50 50 51 52 52 54 55 55 55 54 53 53 53 53 54 54 54 53 52 52 52 53 55 55 55 54 53 52 52 52 52 51 51 51 51 51 51 51 51 51 51 51 51 51 50 50 50 51 51 51 52 53 54 55 56 57 58 59 60 61 62 63 64 64 65 66 66 66 66 65 65 64 63 62 61 60 59 59 59 59 59 58
49 49 48 49 49 49 50 50 51 52 52 53 53 52 52 51 51 51 50 50 50 50 50 50 52 53 53 52 51 51 51 51 51 52 52 52 52 51 51 51 51 51 51 51 50 50 50 50 50 50 51 51 51 52 53 53 54 54 55 56 57 58 60 61 61 62 62 63 64 65 65 65 65 65 63 62 61 60 59 58 58 58 58 57 56
48 48 48 48 48 48 48 49 49 50 50 51 51 51 51 51 51 51 51 50 49 49 49 50 51 52 52 52 51 51 51 51 51 52 52 52 51 51 51 50 50 50 49 49 49 49 48 49 49 49 50 50 50 51 51 52 52 53 53 53 54 55 57 58 59 60 61 61 61 62 63 63 64 64 63 61 60 59 59 58 58 57 57 56 55
47 47 47 46 46 46 45 45 45 46 46 47 48 49 50 51 51 51 51 51 50 49 49 49 50 51 52 52 52 52 52 52 52 52 52 51 50 50 49 49 48 48 47 47 46 46 46 46 46 46 47 47 48 48 49 50 50 51 51 51 52 53 55 56 58 59 60 61 61 61 61 61 62 62 62 61 60 59 58 58 57 56 56 55 54
45 44 43 42 41 41 41 41 41 41 42 43 45 45 47 48 49 51 51 51 51 49 48 48 48 49 51 52 52 53 53 53 53 52 52 51 50 49 48 48 47 46 45 44 44 44 44 43 43 44 44 44 45 46 46 47 48 49 50 50 50 51 53 54 56 58 59 61 61 61 60 60 60 61 62 62 61 60 58 57 56 54 53 53 52
39 38 38 37 37 37 38 38 39 39 40 41 42 43 44 44 45 46 48 49 50 50 49 48 47 47 49 50 51 52 52 52 52 51 50 50 50 49 48 47 46 45 43 43 42 42 42 42 41 42 42 42 43 43 44 45 46 46 47 47 48 48 49 49 51 52 54 56 58 59 59 59 59 60 61 62 61 59 57 55 53 51 48 46 47
35 36 36 36 36 37 37 38 39 39 39 39 40 40 41 41 41 41 42 43 45 47 47 47 46 46 46 47 48 49 49 49 49 48 47 47 47 47 46 45 45 44 43 42 42 41 40 40 40 40 40 41 41 42 43 43 43 43 44 45 46 46 46 46 46 47 48 50 52 53 54 54 55 56 58 59 59 57 55 53 51 47 43 41 41
35 35 35 35 35 35 36 36 36 36 36 36 35 35 35 35 36 37 38 38 39 41 43 44 44 44 44 44 45 46 46 47 46 46 45 44 44 44 44 43 43 42 42 41 41 40 40 40 39 39 39 40 40 41 42 43 43 43 43 43 44 45 45 45 44 44 45 47 48 49 50 50 51 52 53 54 55 54 52 50 47 45 43 42 41
34 34 33 33 33 33 32 32 32 32 33 33 33 33 32 31 31 32 34 36 37 38 40 42 42 42 42 43 44 44 44 45 45 45 44 43 42 41 41 40 40 40 40 40 40 39 39 39 39 38 39 39 40 40 41 42 43 43 42 42 42 43 44 43 43 42 41 42 44 45 46 45 45 47 48 48 49 50 49 45 42 41 42 41 40
34 34 33 32 32 32 32 31 31 31 32 32 33 34 34 33 31 30 31 33 34 35 37 39 40 41 41 42 43 44 43 43 43 43 43 42 41 39 38 38 38 37 38 38 38 38 38 38 38 38 38 38 38 39 40 41 42 42 42 41 40 41 41 41 40 39 37 37 37 38 38 38 37 37 37 37 38 40 41 41 40 40 40 39 37
33 33 33 33 32 31 31 31 31 31 31 32 32 33 34 35 35 33 31 31 32 34 35 36 38 39 40 41 41 43 43 43 43 42 42 41 40 38 36 36 36 36 35 35 35 36 36 37 37 37 37 36 36 37 38 39 40 40 40 39 38 38 38 37 35 34 33 32 32 32 32 31 30 29 28 27 27 28 31 34 36 37 37 36 34
32 32 32 32 32 31 31 31 30 30 30 30 30 31 32 33 34 35 34 32 31 32 34 35 36 38 39 40 40 40 40 41 41 41 40 39 38 35 35 35 36 35 35 34 34 34 35 35 35 35 35 35 35 35 36 36 37 37 37 37 36 36 35 34 32 30 29 28 27 27 27 27 26 25 24 23 23 23 24 25 28 30 30 31 31
32 32 32 32 31 31 31 31 30 29 29 29 29 29 30 30 31 33 34 33 31 30 30 32 34 35 37 38 38 38 38 38 38 38 38 37 35 33 34 34 34 35 34 34 34 34 33 33 34 34 35 35 35 34 34 33 34 34 34 34 34 34 33 32 30 29 27 25 24 23 23 23 23 22 22 21 21 20 21 21 22 23 24 26 27
34 33 33 32 31 31 31 30 30 30 29 29 29 28 29 29 29 30 30 31 31 30 28 28 29 31 34 35 37 37 38 38 37 36 36 35 35 34 34 34 33 32 32 32 32 32 32 32 33 33 34 34 33 32 31 31 32 32 32 32 32 32 31 30 29 28 26 24 23 21 20 20 20 20 20 20 19 18 18 18 18 19 20 20 21
34 34 33 33 31 31 30 30 30 29 29 29 29 29 28 29 29 29 29 29 29 29 28 27 27 28 30 32 34 35 36 37 36 36 36 35 35 34 33 32 30 29 29 29 29 30 30 30 31 31 32 31 31 30 30 30 31 31 31 30 30 29 29 28 28 27 26 25 23 22 20 20 19 19 19 19 19 18 17 17 16 16 16 16 16
33 33 34 33 32 31 30 30 30 29 29 29 29 29 29 29 29 29 29 29 29 29 29 28 27 27 27 28 30 31 33 34 35 35 36 35 35 34 33 32 30 29 29 28 28 28 28 29 29 30 30 30 29 29 29 29 29 30 29 28 27 27 26 26 25 25 25 24 23 21 21 20 19 19 18 18 18 18 18 17 16 16 15 15 14
33 32 32 33 33 32 31 31 30 30 29 30 29 29 29 29 29 29 30 30 30 30 29 29 28 27 27 27 27 28 29 31 32 33 34 34 34 34 33 33 32 31 31 30 29 29 29 29 29 30 30 29 29 28 28 27 27 27 26 26 25 24 24 23 23 22 22 22 22 21 20 19 19 19 19 18 18 18 18 18 18 17 16 16 15
33 32 32 32 33 32 32 31 31 31 30 30 30 30 29 29 29 29 30 30 30 30 30 30 29 28 27 27 27 26 26 27 29 30 31 32 32 33 33 33 32 32 32 31 31 30 30 29 29 29 30 30 29 29 28 27 26 26 25 24 23 23 22 21 21 20 20 19 19 19 19 18 18 18 18 18 18 18 19 19 19 19 19 19 19
34 33 33 33 33 33 33 32 32 32 31 31 31 30 30 30 30 30 30 30 30 30 30 30 30 29 28 27 27 27 26 26 26 27 28 29 30 31 31 31 31 31 31 31 31 31 30 30 29 29 29 29 29 29 28 28 28 27 26 24 23 22 21 20 19 19 18 17 17 17 16 16 16 16 17 17 17 18 18 18 19 20 20 20 21
34 34 34 34 34 34 34 34 33 33 32 32 32 32 31 31 30 30 30 30 30 30 29 29 29 29 28 28 27 27 27 26 26 26 26 27 28 29 29 30 30 30 30 30 30 30 30 30 29 29 29 29 28 28 28 29 29 28 26 24 23 22 21 20 19 18 18 17 16 16 15 15 15 15 15 15 15 16 16 17 17 18 19 20 20
35 35 35 35 35 35 35 35 35 34 33 33 33 33 33 32 31 31 31 30 30 30 30 29 28 28 28 28 28 28 27 27 26 26 25 26 26 27 27 28 28 29 29 29 29 29 29 29 29 28 28 28 27 27 27 28 28 27 26 25 24 23 22 21 20 19 19 18 17 17 16 16 15 15 14 14 14 15 15 15 16 16 17 18 18
36 36 36 36 36 36 36 36 36 36 35 34 34 34 34 33 32 32 31 31 31 30 30 29 28 27 26 27 27 27 27 26 26 26 25 25 25 25 25 26 26 27 27 27 27 27 27 27 27 27 27 27 26 26 25 25 25 25 24 24 23 23 23 22 21 21 20 19 18 18 18 17 17 16 16 15 15 15 15 15 15 15 15 16 16
38 37 37 37 36 36 36 36 37 37 36 36 35 34 34 34 34 33 32 32 31 30 30 29 28 27 26 25 26 26 26 26 25 25 25 24 24 24 24 24 24 24 24 25 25 25 25 25 25 25 25 24 24 24 23 23 22 22 22 21 21 21 21 21 21 20 20 19 19 19 18 18 17 17 16 16 16 16 15 15 15 15 15 15 15
38 38 38 37 37 36 36 36 36 36 36 36 35 35 34 34 34 33 33 32 31 30 29 29 28 28 26 25 25 25 25 25 25 24 24 24 23 23 23 23 23 22 22 22 22 22 22 22 22 22 22 22 22 21 21 20 20 19 19 19 19 19 19 19 19 19 18 18 18 18 17 17 17 16 16 16 16 16 15 15 15 15 15 15 15
38 38 37 37 37 36 36 36 35 35 35 35 35 35 34 34 33 33 32 32 32 31 29 28 28 27 26 25 25 24 24 24 24 23 23 23 22 22 21 21 21 21 20 20 20 20 20 20 20 20 20 19 19 19 18 18 18 18 18 17 17 17 16 16 16 16 16 16 16 16 15 15 15 15 15 15 15 15 14 14 14 13 13 13 13
37 37 36 36 36 36 35 35 35 35 34 34 34 34 34 33 33 32 32 32 31 31 30 28 27 27 26 25 25 24 24 24 23 23 22 21 21 20 20 19 19 19 19 18 18 18 18 17 16 16 16 16 16 16 16 16 16 16 16 16 15 14 14 13 13 13 13 13 13 13 13 13 13 13 13 13 13 13 13 13 12 12 12 12 12
36 35 35 35 34 34 34 34 34 33 33 33 32 32 32 33 33 32 32 31 31 30 29 28 27 26 26 25 25 24 24 24 23 22 21 21 20 19 19 18 17 17 17 17 17 16 16 15 14 14 14 14 14 14 14 13 13 14 14 14 13 13 12 12 12 12 12 12 12 12 12 12 12 12 12 12 12 12 12 12 12 12 12 12 12
34 34 34 33 33 33 33 33 33 32 32 32 31 31 31 31 31 31 31 31 30 30 29 28 27 27 26 25 25 24 24 24 23 22 21 20 19 19 18 18 17 16 16 16 15 15 14 14 13 13 13 12 11 11 11 11 12 13 13 13 13 12 12 12 11 12 11 11 11 11 11 11 11 11 11 11 11 12 12 12 12 12 12 12 12
33 33 32 32 32 32 32 32 31 31 31 31 31 30 30 30 30 30 30 30 29 29 28 27 27 26 26 26 25 24 24 24 23 23 22 21 20 19 18 17 17 16 16 15 14 14 13 13 13 13 12 11 11 11 11 11 12 12 12 11 11 11 11 11 11 11 11 11 11 11 11 11 12 11 11 11 11 12 12 12 12 12 12 12 12
Wind_Direction
270 270 268 268 267 266 265 266 266 267 268 270 272 275 278 280 281 282 283 283 283 283 282 280 278 276 275 275 275 275 274 275 275 276 276 277 277 277 277 277 277 277 276 276 275 275 275 275 275 276 278 279 279 280 281 283 284 285 286 287 286 287 288 289 288 287 285 285 286 286 286 286 284 283 282 280 280 280 280 279 278 276 275 276 276
271 270 267 266 265 264 263 262 262 263 264 264 264 265 268 271 273 275 276 276 275 274 272 270 270 270 270 270 270 271 271 272 273 273 274 275 275 276 276 276 277 277 277 276 276 276 276 276 277 278 280 280 280 281 283 285 287 288 288 289 289 289 291 291 291 289 286 285 286 285 285 285 284 283 282 280 280 280 279 279 278 277 276 277 278
277 275 273 271 268 266 264 262 260 260 261 261 261 261 260 259 260 262 265 266 268 268 267 266 266 266 266 267 267 268 269 269 269 269 270 271 271 272 273 274 275 276 276 277 278 278 279 280 281 282 282 282 282 283 285 285 287 287 288 289 289 290 291 292 292 291 288 285 284 285 284 284 283 283 283 282 281 280 280 280 279 278 278 279 280
280 279 278 276 274 273 271 268 266 264 263 262 262 261 259 257 256 255 256 258 260 263 265 266 266 267 267 267 267 268 268 268 269 269 269 270 270 271 271 272 273 274 275 276 278 279 280 282 283 284 283 283 283 283 284 284 285 285 286 286 288 288 289 290 290 290 290 287 284 284 285 283 283 282 283 283 282 281 281 281 280 280 280 281 282
280 279 279 279 277 276 275 274 273 271 269 268 266 264 262 260 259 258 257 257 257 259 261 263 266 267 268 268 268 269 269 269 269 269 270 270 271 271 271 272 272 273 274 276 277 279 281 282 283 284 283 283 283 282 282 282 283 283 284 285 286 287 287 287 287 287 287 286 285 284 284 283 282 281 282 283 283 282 282 282 282 282 282 282 283
280 280 279 279 279 279 278 277 276 275 274 273 271 269 267 264 263 263 262 262 262 263 263 265 267 270 272 273 272 272 271 271 270 270 270 270 270 271 271 272 272 273 274 275 276 278 280 281 282 282 281 282 282 282 281 281 281 282 283 283 284 284 284 284 284 283 283 283 283 282 282 281 281 280 280 281 282 282 282 282 282 282 282 282 283
280 280 280 280 279 280 280 278 277 276 275 274 273 271 271 270 269 268 267 267 268 268 268 269 271 273 275 276 277 277 277 276 274 273 273 272 271 271 272 272 273 274 275 275 276 277 278 279 280 280 280 280 280 280 280 280 281 281 282 282 282 281 281 281 281 281 281 281 281 280 280 280 279 279 278 279 279 280 281 282 282 280 281 282 281
277 278 279 279 278 278 278 278 277 276 276 275 274 273 272 273 272 272 271 271 271 271 271 272 273 274 275 276 279 280 279 279 278 277 277 276 274 273 274 273 273 274 275 275 276 277 278 278 278 278 278 278 278 279 279 279 279 280 280 281 280 279 279 279 279 279 280 280 280 280 280 279 278 278 278 278 278 278 280 282 281 280 281 281 280
275 275 276 276 276 276 276 276 275 275 275 275 275 274 274 274 274 273 273 273 273 274 274 274 275 276 276 277 279 280 279 279 280 280 280 278 276 275 275 274 273 273 273 274 274 275 276 277 277 277 277 278 278 278 278 278 278 279 279 279 279 279 279 279 279 279 279 280 280 280 281 280 279 279 279 279 279 280 280 281 281 281 282 281 279
274 274 273 272 273 274 274 274 274 273 273 272 273 273 273 274 274 274 274 274 274 275 276 276 277 278 278 279 279 280 280 280 280 279 280 279 277 277 276 274 274 274 274 274 273 274 274 275 275 275 275 276 276 277 277 277 278 278 278 278 279 279 279 279 279 279 280 280 280 280 280 280 280 281 281 281 281 281 281 281 281 280 280 280 279
277 276 274 272 271 271 271 271 272 272 272 271 271 271 271 272 273 274 274 275 275 276 277 277 278 279 280 281 281 282 281 281 280 279 279 279 277 277 277 276 275 276 276 276 275 275 275 274 274 274 274 275 275 275 275 276 276 277 277 277 278 279 279 280 280 280 280 281 280 280 280 280 281 281 282 282 282 282 282 281 281 279 278 279 278
280 279 279 277 275 273 271 270 270 270 271 271 270 269 269 270 270 271 272 273 274 274 274 275 276 277 278 279 279 279 279 279 279 279 278 278 276 276 277 276 276 277 277 277 277 277 277 276 276 275 275 275 275 275 274 274 274 274 275 275 276 276 278 279 279 280 280 281 281 281 280 281 281 281 282 283 283 283 282 280 280 279 279 278 278
281 280 280 280 279 278 276 274 272 271 270 270 270 269 269 268 269 270 270 271 271 272 271 272 272 272 273 273 274 274 274 275 275 276 276 276 275 275 275 275 275 276 276 277 277 277 276 276 276 275 275 275 275 275 275 274 274 274 274 273 273 274 275 276 277 278 279 280 281 280 280 281 281 281 281 282 282 281 280 280 280 280 279 278 278
286 283 281 280 280 279 278 277 276 275 273 272 270 269 268 267 268 268 269 270 270 271 271 272 272 272 271 271 271 272 273 274 274 275 275 274 274 273 273 272 273 273 274 274 274 274 274 274 273 273 273 273 274 275 275 275 275 274 274 274 273 273 273 274 274 276 277 279 279 279 279 279 280 280 280 280 279 279 279 280 279 279 279 278 277
290 288 286 284 282 280 279 277 277 276 276 275 273 271 268 267 267 267 268 269 270 271 272 272 272 273 273 273 273 273 274 275 276 277 277 277 276 276 275 274 273 273 273 273 273 273 273 273 273 272 272 272 274 275 275 275 275 274 274 274 274 273 273 273 274 275 276 276 276 277 277 276 277 278 278 278 278 278 278 278 278 277 277 277 276
291 290 289 288 287 285 282 279 277 275 275 275 275 274 272 270 269 268 268 268 270 272 273 274 275 275 275 276 276 275 276 276 277 278 279 280 280 280 279 278 277 276 276 276 276 275 275 276 276 275 275 274 275 276 276 275 275 274 274 274 273 273 272 273 274 276 276 275 275 275 274 273 274 274 275 276 276 277 277 275 274 275 276 276 275
288 289 289 289 289 288 287 284 281 278 276 275 274 273 273 272 271 271 271 270 271 272 273 275 277 278 279 278 277 277 278 278 278 278 279 280 280 280 280 279 279 278 277 277 277 277 277 277 278 278 277 277 277 278 278 277 276 276 275 275 274 273 272 272 274 275 276 276 275 275 274 273 272 272 273 273 274 275 276 274 273 274 273 273 274
284 284 284 285 286 287 287 287 285 283 280 278 276 274 273 272 271 272 272 273 273 274 274 275 276 279 280 279 278 279 281 280 279 278 278 278 278 278 278 278 277 277 276 276 276 276 276 277 277 278 278 278 278 279 279 279 279 278 278 277 276 275 274 274 275 275 275 275 275 275 274 274 273 272 272 272 273 274 274 274 274 273 272 270 271
284 282 281 281 281 282 283 284 284 284 283 281 280 278 276 275 273 273 272 273 273 274 275 276 277 278 279 278 278 281 284 283 281 279 278 278 277 277 277 276 276 275 275 274 274 274 275 275 276 277 277 278 278 279 279 280 280 280 280 280 279 278 277 277 277 276 275 275 275 275 274 274 273 273 272 272 273 273 274 275 274 273 272 272 271
286 284 281 279 278 278 279 279 280 280 281 281 280 280 279 277 276 275 275 275 275 275 276 277 277 278 278 278 280 282 285 285 282 280 279 278 277 277 277 276 276 275 275 275 274 274 274 275 275 276 276 277 277 277 278 278 279 279 280 280 281 280 280 279 278 278 277 276 275 275 274 274 273 273 273 272 273 273 274 275 275 274 274 273 271
287 285 283 281 278 276 275 275 276 276 277 278 278 278 279 278 278 278 278 277 277 277 277 277 277 277 278 279 282 284 285 285 282 280 279 278 277 277 277 277 276 276 276 276 276 276 275 275 276 276 276 277 277 277 277 278 278 278 279 279 280 280 280 279 278 278 277 277 277 276 276 275 274 274 273 273 273 273 273 274 274 274 273 272 270
287 285 284 282 279 277 274 273 272 273 274 274 275 275 276 277 277 278 278 278 277 277 277 277 277 278 279 280 282 282 283 282 280 279 279 278 277 278 278 278 278 278 278 278 278 278 278 278 278 278 278 279 279 279 280 280 280 281 281 281 281 281 280 279 279 278 277 276 276 275 275 275 274 273 273 272 272 272 272 272 272 272 272 271 270
287 285 283 281 279 277 274 272 271 270 270 271 271 272 273 273 274 275 276 276 275 274 274 275 276 277 278 278 278 278 277 277 277 277 278 278 279 279 279 280 280 280 280 280 280 280 281 281 281 281 281 281 281 282 282 282 283 283 283 283 282 282 281 280 280 279 278 276 275 274 273 273 272 271 270 270 270 270 269 269 269 269 270 271 271
288 286 284 281 279 276 274 272 270 269 268 268 268 269 270 271 271 272 273 274 273 272 272 272 273 274 274 274 274 273 273 273 275 276 277 278 279 280 280 281 282 282 282 282 282 282 282 283 283 283 284 284 284 285 285 285 285 285 285 285 284 283 282 281 280 279 278 277 276 275 273 272 270 269 268 267 267 267 266 266 266 267 268 269 269
289 287 285 283 281 278 275 273 271 270 268 267 266 266 266 267 268 269 271 272 273 272 272 271 271 271 271 270 269 269 270 271 273 276 278 279 280 281 281 282 283 284 284 284 284 284 284 284 285 285 285 286 286 286 287 287 287 287 286 286 285 285 284 282 281 280 278 277 276 275 274 273 271 270 269 268 267 266 266 265 265 265 266 267 267
290 288 287 285 283 281 278 275 274 274 273 271 269 268 267 266 266 266 268 269 271 271 271 270 270 269 269 268 268 268 269 270 272 274 277 278 279 280 281 282 283 284 285 286 286 286 286 286 286 286 286 287 287 287 287 287 286 286 286 286 286 286 286 284 282 280 278 277 276 275 274 273 272 272 271 269 269 268 266 266 266 265 266 266 266
291 289 287 286 284 283 283 281 279 279 278 276 275 273 272 271 269 268 268 268 269 270 270 270 269 269 269 269 269 270 271 272 273 274 275 277 278 279 280 280 281 282 283 284 284 285 285 286 286 286 286 286 287 287 287 287 286 286 286 287 288 289 288 286 284 281 279 278 276 275 274 273 272 272 271 271 271 270 269 268 267 266 266 265 265
295 294 293 291 289 287 287 286 284 282 280 278 277 277 276 275 274 272 271 270 270 271 271 270 270 271 271 271 271 271 272 273 273 274 275 276 276 277 278 278 278 279 279 279 280 281 281 282 283 283 284 285 286 287 288 288 288 288 289 290 291 292 293 292 289 285 282 280 278 277 275 274 273 271 271 272 272 272 271 271 270 268 267 265 263
300 299 297 295 292 289 288 286 284 283 280 278 277 276 276 277 276 275 275 275 274 274 273 272 272 272 272 272 272 273 273 273 274 275 275 276 276 276 277 277 277 277 277 278 278 279 279 280 281 283 284 285 287 288 289 289 290 291 292 294 295 296 297 298 296 293 290 288 285 282 280 279 277 275 273 272 272 271 268 267 266 266 266 265 262
300 298 296 294 292 289 287 285 284 283 282 280 278 277 277 278 278 277 277 279 280 280 279 277 277 276 274 273 274 275 275 275 275 276 276 277 277 277 278 278 279 279 280 280 281 281 282 282 284 285 286 288 289 290 290 291 292 293 295 296 298 298 299 299 298 296 294 293 291 288 286 284 281 276 271 268 266 264 261 259 258 259 260 260 258
298 296 295 294 292 291 289 287 286 286 287 287 286 284 282 282 282 281 280 281 283 284 284 283 283 282 280 277 276 277 278 279 279 280 280 281 281 280 280 280 281 282 282 282 283 284 284 284 285 287 288 290 290 291 291 292 293 294 295 297 298 299 300 299 298 296 294 292 290 288 286 284 280 274 266 262 259 258 257 257 258 260 261 260 257
298 297 296 295 294 294 293 293 292 291 291 291 290 289 287 285 284 284 283 283 282 283 285 285 286 286 286 284 281 280 280 281 282 282 283 283 283 283 282 282 281 282 283 283 283 283 284 284 286 287 288 290 290 291 291 292 293 294 295 296 297 298 299 299 299 298 296 293 290 287 284 282 280 275 270 267 263 260 258 257 257 259 262 264 263
302 300 299 298 297 296 295 295 294 294 293 292 291 290 289 286 284 283 283 282 282 282 282 283 285 286 287 287 286 284 283 283 284 284 285 285 285 285 284 282 281 281 282 282 282 282 283 284 285 287 287 288 288 289 290 291 292 293 294 295 296 297 297 298 298 299 299 297 294 291 287 285 284 283 281 279 276 270 266 263 260 258 259 262 263
306 304 303 301 300 299 298 297 296 295 295 294 293 292 290 289 288 286 285 283 281 280 280 280 281 283 284 285 286 286 286 286 286 286 287 287 288 288 287 285 284 283 284 284 284 284 285 285 286 287 287 287 288 289 290 290 291 293 294 295 295 295 295 295 296 297 298 299 298 296 292 290 290 290 289 288 286 282 277 273 270 267 264 262 260
308 307 306 304 303 301 300 299 298 297 297 296 296 295 293 291 290 289 288 287 284 282 280 279 278 278 278 279 280 281 283 284 285 286 287 287 288 288 288 288 288 288 288 289 290 290 290 290 289 289 289 289 290 290 290 290 291 292 293 293 293 293 293 292 292 293 294 297 299 301 300 297 295 295 294 293 291 288 284 279 275 272 269 265 262
306 306 306 305 304 303 301 300 299 298 298 297 297 296 295 294 292 290 290 289 289 287 285 282 279 277 276 276 277 278 279 280 280 281 282 283 284 285 286 287 287 289 290 291 292 292 292 291 291 291 291 291 290 290 290 290 291 292 293 293 292 292 291 290 289 290 291 293 297 300 303 304 304 301 298 296 295 294 292 289 283 277 273 269 265
305 305 304 304 303 303 302 301 300 299 299 298 297 297 296 296 295 295 293 293 292 292 291 288 285 281 278 278 279 280 281 281 281 281 281 282 283 284 285 285 286 286 288 289 291 291 291 291 291 291 292 292 292 291 291 292 292 293 293 293 292 292 291 290 290 289 289 291 293 295 298 302 306 307 305 302 300 299 298 296 294 291 286 281 276
306 305 305 304 303 303 303 302 302 301 300 299 298 297 297 296 296 296 297 297 296 296 295 295 292 287 284 282 281 282 283 283 284 284 284 284 285 284 284 285 285 284 284 286 287 289 290 290 290 291 292 292 292 292 293 294 294 294 293 292 292 292 292 292 292 290 289 289 291 293 296 298 301 302 303 302 300 299 296 293 291 289 287 286 284
306 306 305 304 304 304 303 303 303 302 301 300 298 298 297 297 296 296 297 297 298 298 298 298 297 295 292 289 287 285 284 284 284 284 285 285 286 286 286 286 286 285 285 285 285 286 287 288 289 289 291 291 291 292 294 296 296 295 294 293 293 293 293 293 293 292 292 291 291 292 295 296 296 295 295 295 294 293 290 286 282 278 273 270 268
305 305 305 305 304 304 304 303 303 302 301 300 299 298 298 297 297 297 297 296 297 297 298 298 298 298 298 296 294 292 289 286 285 285 284 284 285 285 285 285 285 285 285 284 284 284 285 286 286 287 288 289 290 291 293 295 295 295 294 293 293 293 294 293 293 293 293 293 294 294 294 295 294 293 291 290 287 285 283 280 277 273 268 263 259
305 305 305 304 304 304 304 304 303 302 302 301 300 299 299 298 297 297 297 296 296 297 297 298 299 300 301 301 300 298 296 293 290 288 286 285 284 283 284 284 283 283 283 283 282 282 282 283 284 284 285 286 288 288 289 290 292 293 293 292 292 292 294 294 294 294 294 293 294 295 295 294 293 292 290 288 285 283 280 278 276 273 270 266 263
304 304 304 304 303 303 303 303 303 302 302 301 301 300 300 299 298 296 296 296 296 296 297 297 299 301 302 303 302 301 300 299 297 294 291 288 285 284 283 283 283 282 282 281 281 281 280 280 280 280 282 283 283 284 283 284 286 289 290 290 290 290 291 293 293 294 294 294 293 293 293 293 292 291 289 288 286 284 282 280 278 276 274 272 269
304 304 304 304 303 303 302 302 301 301 300 300 300 300 299 298 298 297 296 295 295 295 295 296 298 300 302 303 303 303 302 302 301 299 296 293 289 286 284 282 282 282 281 281 280 280 279 278 277 277 278 279 280 280 280 280 281 283 283 284 285 285 286 287 289 290 291 292 291 291 291 290 290 289 288 287 285 284 282 281 280 279 278 277 275
304 304 304 304 303 302 302 301 300 300 299 299 298 298 297 297 296 296 295 295 295 295 295 295 296 298 299 301 302 303 303 304 303 302 300 298 295 291 287 284 281 280 280 280 280 279 278 277 276 275 275 275 276 278 278 278 278 279 280 280 281 281 281 282 282 283 285 286 286 287 288 288 288 288 288 287 286 284 283 281 279 278 277 276 276
303 304 303 303 302 301 301 300 299 299 298 298 297 296 296 295 295 294 294 293 293 294 294 295 295 296 297 299 300 301 302 303 303 303 302 301 298 295 292 288 285 283 281 280 279 278 277 276 275 275 274 274 274 274 275 276 277 278 279 280 280 280 280 279 278 278 278 279 280 280 282 283 284 284 284 284 283 282 281 279 277 275 274 273 272
301 301 301 301 301 300 300 299 299 298 297 296 296 295 294 293 292 292 292 291 291 291 292 292 293 294 295 296 297 299 300 302 303 303 303 301 299 297 295 292 289 287 283 281 279 278 277 276 276 275 274 273 273 272 273 275 275 276 276 277 278 279 279 279 278 277 276 275 275 275 275 276 277 278 278 278 277 276 276 274 272 271 269 268 267
299 299 299 300 300 300 300 299 298 298 297 296 295 294 292 291 290 289 289 289 289 289 289 289 289 291 292 293 293 295 297 299 301 302 302 300 299 297 296 294 292 289 286 283 281 279 278 278 277 276 274 273 272 271 271 272 273 274 274 274 275 276 277 277 277 277 276 275 274 273 273 273 273 272 272 273 272 272 271 270 269 267 265 264 263
298 298 298 298 298 298 299 299 298 298 297 296 295 293 292 290 288 287 286 287 287 286 286 286 286 287 288 289 289 291 293 295 298 300 300 299 298 298 297 295 293 291 288 285 283 282 281 279 276 274 273 273 272 272 271 271 271 272 272 272 273 274 275 275 275 274 274 274 273 272 272 271 270 270 269 269 269 269 269 268 268 267 266 265 264
297 297 297 297 297 297 297 297 298 298 297 297 295 294 291 289 288 287 286 285 285 285 284 284 283 284 285 285 286 287 289 291 293 296 297 298 298 298 297 295 293 291 289 287 285 283 281 278 275 274 274 273 273 272 272 272 271 270 270 271 272 272 273 273 273 273 273 272 271 270 269 268 267 266 266 265 265 266 265 265 265 265 265 265 264
298 297 297 297 296 296 297 297 297 297 298 297 296 294 292 290 288 286 286 285 285 285 284 283 282 281 281 281 282 283 284 286 289 291 293 295 296 297 296 296 294 292 290 288 287 284 281 278 278 277 277 274 271 270 271 271 272 271 270 270 270 271 271 272 273 273 272 272 271 269 268 266 265 264 264 264 264 263 263 263 263 263 262 261 260
299 299 299 298 298 297 297 297 297 297 297 298 297 296 294 291 289 287 286 285 285 284 283 283 282 281 280 280 280 280 281 282 284 286 288 290 291 293 293 294 294 293 292 291 289 286 283 280 279 278 277 274 272 272 274 274 274 274 273 272 272 272 272 273 273 272 272 272 272 272 271 270 268 266 264 262 261 261 262 261 261 261 260 259 259
Height
3050 3050 3050 3049 3049 3048 3048 3048 3047 3047 3046 3046 3046 3046 3046 3046 3046 3046 3045 3045 3045 3045 3044 3044 3044 3044 3044 3043 3043 3043 3043 3043 3042 3042 3041 3041 3041 3040 3040 3040 3039 3039 3039 3039 3039 3037 3037 3036 3035 3036 3035 3034 3033 3033 3032 3032 3031 3030 3029 3028 3027 3026 3025 3022 3017 3014 3016 3019 3018 3017 3016 3016 3018 3020 3020 3020 3018 3017 3015 3014 3014 3013 3012 3012 3013
3046 3047 3046 3046 3045 3045 3044 3044 3044 3043 3043 3042 3042 3041 3041 3041 3042 3042 3041 3041 3041 3040 3040 3040 3040 3039 3039 3039 3039 3038 3038 3038 3038 3037 3036 3036 3036 3035 3035 3034 3034 3034 3033 3033 3034 3033 3032 3031 3031 3031 3031 3029 3029 3028 3027 3027 3026 3025 3025 3023 3022 3021 3020 3017 3014 3011 3010 3012 3013 3012 3011 3010 3011 3013 3014 3014 3013 3012 3010 3010 3009 3008 3008 3007 3007
3042 3042 3042 3042 3042 3041 3041 3040 3040 3039 3039 3038 3037 3037 3036 3036 3036 3036 3036 3036 3036 3036 3036 3035 3035 3035 3035 3034 3034 3034 3034 3033 3033 3032 3031 3031 3030 3030 3030 3029 3028 3028 3028 3028 3028 3028 3027 3026 3027 3027 3026 3025 3024 3024 3023 3023 3022 3020 3020 3018 3017 3016 3016 3013 3011 3007 3005 3006 3007 3007 3005 3005 3005 3006 3007 3007 3007 3006 3006 3005 3005 3004 3003 3003 3002
3038 3038 3038 3038 3037 3037 3037 3036 3036 3035 3034 3033 3033 3032 3031 3031 3030 3030 3030 3030 3030 3030 3030 3030 3030 3030 3030 3030 3029 3029 3029 3028 3028 3027 3026 3025 3025 3025 3024 3024 3023 3023 3022 3022 3022 3022 3021 3021 3021 3021 3020 3019 3019 3019 3018 3018 3017 3015 3014 3014 3012 3011 3011 3009 3006 3004 3001 3000 3001 3002 3000 2999 2999 3000 3000 3000 3001 3001 3000 3000 3000 3000 2999 2998 2997
3033 3032 3032 3032 3032 3032 3032 3032 3032 3031 3030 3029 3027 3027 3026 3025 3025 3024 3024 3024 3024 3024 3024 3024 3024 3024 3025 3025 3025 3024 3024 3023 3022 3021 3020 3020 3019 3019 3018 3018 3018 3017 3017 3017 3016 3016 3015 3015 3016 3015 3014 3013 3014 3013 3013 3012 3011 3009 3008 3008 3007 3006 3005 3003 3001 3000 2997 2995 2996 2997 2996 2994 2993 2994 2994 2994 2994 2995 2995 2995 2995 2995 2994 2993 2992
3027 3027 3026 3026 3026 3026 3026 3026 3026 3025 3024 3023 3022 3021 3021 3020 3020 3019 3018 3018 3018 3018 3018 3018 3018 3018 3018 3018 3018 3018 3018 3017 3016 3016 3015 3014 3013 3013 3012 3012 3012 3011 3011 3010 3010 3009 3009 3008 3009 3008 3007 3007 3007 3007 3006 3005 3004 3003 3002 3002 3001 3000 2998 2997 2996 2994 2992 2990 2990 2990 2990 2989 2988 2988 2989 2988 2987 2987 2988 2988 2989 2989 2988 2987 2987
3020 3020 3019 3019 3019 3019 3018 3018 3018 3018 3017 3016 3016 3015 3015 3014 3014 3013 3012 3012 3011 3011 3011 3011 3011 3011 3011 3012 3011 3012 3011 3011 3010 3009 3008 3007 3007 3006 3005 3005 3005 3005 3004 3004 3003 3003 3002 3002 3001 3001 3000 3000 3000 2999 2999 2998 2997 2996 2996 2995 2994 2993 2991 2991 2989 2987 2986 2985 2984 2983 2983 2983 2982 2982 2982 2982 2981 2981 2981 2981 2982 2982 2981 2981 2982
3013 3013 3012 3012 3011 3011 3011 3010 3010 3009 3009 3008 3008 3008 3007 3007 3007 3006 3006 3005 3005 3004 3004 3004 3004 3004 3004 3004 3005 3005 3004 3004 3003 3002 3002 3001 3000 2999 2999 2998 2997 2997 2997 2997 2997 2996 2995 2995 2994 2994 2993 2993 2992 2992 2991 2990 2989 2989 2989 2988 2986 2985 2984 2983 2982 2981 2979 2978 2977 2977 2977 2976 2976 2976 2975 2975 2974 2975 2976 2975 2974 2975 2975 2974 2975
3006 3006 3006 3005 3004 3004 3003 3003 3002 3002 3001 3000 3000 2999 2999 2999 2999 2999 2999 2998 2997 2997 2996 2996 2997 2997 2997 2997 2997 2997 2997 2996 2996 2995 2994 2994 2993 2992 2992 2991 2990 2990 2990 2990 2989 2989 2988 2988 2987 2987 2986 2985 2985 2985 2984 2983 2982 2981 2981 2981 2979 2978 2977 2976 2975 2974 2973 2972 2971 2971 2970 2969 2970 2970 2969 2968 2968 2969 2970 2967 2966 2968 2968 2966 2967
3000 2999 2999 2999 2998 2997 2996 2995 2995 2994 2993 2993 2992 2991 2991 2990 2990 2990 2990 2990 2989 2989 2989 2989 2988 2989 2989 2989 2989 2989 2988 2988 2988 2987 2987 2986 2986 2985 2985 2984 2983 2983 2982 2982 2982 2982 2981 2981 2980 2980 2979 2978 2978 2977 2977 2976 2974 2973 2973 2973 2972 2970 2969 2969 2968 2968 2966 2965 2964 2965 2963 2962 2964 2964 2962 2962 2962 2962 2962 2961 2959 2961 2959 2957 2958
2993 2993 2992 2992 2992 2991 2990 2989 2988 2987 2987 2986 2985 2984 2984 2983 2982 2982 2981 2981 2981 2980 2981 2981 2980 2980 2980 2981 2981 2980 2979 2979 2979 2979 2978 2978 2978 2977 2977 2977 2976 2975 2975 2975 2975 2975 2974 2974 2973 2973 2972 2971 2971 2970 2969 2968 2967 2966 2966 2966 2965 2963 2962 2961 2961 2961 2959 2957 2957 2958 2957 2955 2958 2958 2956 2956 2956 2955 2955 2954 2952 2952 2951 2949 2950
2986 2986 2985 2984 2984 2983 2982 2982 2981 2980 2980 2979 2978 2977 2976 2976 2975 2974 2974 2973 2973 2973 2973 2972 2972 2972 2972 2972 2973 2972 2971 2971 2970 2970 2969 2969 2969 2969 2969 2969 2968 2968 2968 2967 2967 2967 2966 2966 2966 2965 2965 2964 2963 2962 2961 2960 2959 2959 2958 2958 2958 2957 2956 2954 2953 2953 2952 2950 2949 2950 2950 2949 2950 2951 2951 2949 2949 2948 2947 2946 2945 2944 2944 2943 2942
2980 2979 2978 2977 2975 2974 2974 2973 2973 2973 2972 2971 2971 2970 2969 2968 2967 2967 2966 2966 2966 2966 2965 2965 2964 2964 2964 2964 2965 2965 2963 2963 2962 2961 2961 2961 2961 2960 2961 2961 2960 2961 2961 2960 2959 2959 2958 2958 2958 2958 2958 2957 2955 2953 2952 2951 2951 2950 2950 2950 2950 2950 2949 2948 2947 2946 2945 2943 2941 2941 2944 2943 2941 2943 2945 2943 2940 2940 2939 2937 2937 2937 2936 2935 2935
2972 2971 2971 2970 2968 2967 2966 2965 2965 2964 2964 2963 2962 2962 2961 2960 2959 2959 2959 2959 2959 2958 2958 2957 2957 2956 2956 2956 2957 2956 2955 2955 2955 2954 2954 2954 2953 2952 2952 2952 2952 2953 2952 2952 2951 2951 2950 2949 2948 2949 2950 2949 2947 2945 2943 2943 2942 2941 2941 2941 2941 2942 2942 2941 2941 2940 2938 2936 2934 2933 2936 2937 2933 2934 2937 2935 2932 2931 2931 2929 2929 2929 2928 2928 2928
2964 2963 2963 2962 2961 2960 2959 2957 2957 2956 2955 2954 2954 2953 2953 2952 2952 2951 2951 2951 2951 2950 2950 2949 2949 2949 2949 2948 2948 2948 2947 2946 2946 2946 2946 2946 2945 2944 2944 2944 2944 2944 2944 2943 2942 2942 2941 2940 2939 2939 2940 2940 2938 2935 2934 2934 2932 2932 2932 2932 2932 2932 2933 2934 2934 2932 2929 2928 2927 2926 2928 2929 2927 2926 2928 2927 2924 2923 2923 2921 2920 2920 2919 2919 2920
2957 2956 2955 2954 2953 2952 2951 2950 2950 2948 2947 2946 2946 2945 2945 2945 2944 2944 2944 2944 2943 2942 2942 2941 2941 2941 2941 2941 2940 2940 2939 2938 2938 2938 2938 2938 2936 2935 2935 2935 2935 2936 2935 2935 2934 2933 2932 2931 2930 2930 2931 2931 2929 2926 2925 2925 2923 2923 2923 2922 2923 2922 2924 2927 2925 2921 2919 2920 2919 2918 2918 2920 2920 2918 2919 2919 2916 2916 2914 2912 2912 2912 2911 2909 2910
2952 2950 2948 2946 2945 2944 2943 2942 2942 2941 2940 2939 2939 2938 2938 2938 2937 2936 2936 2936 2936 2935 2934 2934 2934 2933 2933 2933 2932 2932 2931 2931 2930 2930 2929 2929 2928 2927 2926 2926 2927 2927 2927 2927 2926 2925 2924 2922 2921 2921 2922 2922 2921 2918 2917 2916 2914 2914 2913 2913 2913 2913 2916 2919 2916 2911 2911 2911 2909 2908 2908 2909 2911 2910 2910 2910 2909 2908 2904 2901 2903 2905 2902 2900 2901
2945 2944 2942 2940 2938 2937 2935 2934 2934 2933 2932 2932 2931 2931 2930 2930 2930 2929 2929 2929 2929 2928 2927 2927 2927 2927 2926 2925 2925 2924 2924 2923 2923 2922 2921 2920 2919 2918 2918 2918 2919 2919 2919 2919 2918 2917 2916 2914 2912 2912 2912 2913 2912 2910 2908 2907 2905 2905 2904 2903 2903 2904 2907 2909 2904 2902 2903 2901 2899 2899 2899 2899 2900 2900 2900 2900 2900 2899 2895 2892 2895 2896 2892 2890 2892
2936 2935 2934 2933 2932 2930 2929 2927 2926 2925 2924 2923 2923 2922 2922 2922 2922 2921 2921 2921 2922 2922 2921 2920 2920 2920 2919 2918 2917 2916 2916 2915 2915 2913 2913 2912 2910 2910 2909 2910 2910 2911 2911 2911 2910 2909 2907 2906 2904 2904 2903 2904 2903 2901 2900 2898 2897 2896 2895 2893 2892 2894 2898 2897 2893 2893 2893 2891 2890 2890 2889 2889 2890 2890 2890 2891 2891 2890 2886 2884 2886 2885 2881 2881 2884
2926 2925 2925 2925 2924 2923 2922 2920 2919 2918 2916 2916 2915 2914 2914 2913 2913 2913 2913 2913 2913 2913 2912 2912 2912 2912 2912 2911 2909 2908 2908 2907 2907 2905 2904 2903 2902 2902 2901 2901 2902 2902 2902 2902 2901 2901 2900 2898 2897 2896 2895 2896 2895 2894 2892 2891 2889 2887 2886 2884 2882 2884 2886 2885 2883 2883 2881 2880 2880 2880 2879 2880 2880 2879 2880 2881 2881 2880 2878 2876 2876 2875 2872 2872 2874
2917 2916 2916 2915 2914 2914 2913 2912 2912 2911 2910 2908 2908 2907 2906 2905 2905 2904 2904 2904 2904 2904 2903 2903 2903 2903 2903 2902 2901 2900 2899 2899 2899 2898 2897 2896 2895 2894 2894 2893 2893 2893 2893 2892 2892 2891 2891 2890 2889 2888 2888 2887 2887 2886 2885 2883 2881 2879 2878 2876 2874 2874 2873 2872 2872 2873 2870 2869 2869 2869 2868 2869 2870 2870 2870 2870 2871 2871 2869 2868 2867 2866 2864 2863 2864
2908 2907 2906 2906 2905 2904 2904 2903 2903 2902 2902 2901 2900 2900 2899 2898 2897 2896 2896 2895 2895 2895 2895 2895 2895 2895 2895 2894 2893 2892 2891 2890 2890 2890 2889 2888 2887 2886 2885 2885 2884 2884 2883 2883 2882 2881 2881 2881 2880 2880 2879 2879 2879 2878 2876 2874 2872 2870 2869 2867 2866 2864 2862 2861 2861 2861 2860 2858 2857 2857 2858 2859 2859 2859 2860 2860 2860 2861 2859 2858 2858 2856 2855 2854 2855
2901 2899 2898 2897 2896 2895 2894 2894 2893 2893 2893 2892 2892 2892 2892 2891 2890 2890 2888 2888 2888 2887 2887 2887 2887 2887 2887 2886 2885 2884 2884 2883 2882 2882 2881 2879 2878 2877 2876 2876 2875 2874 2874 2873 2873 2872 2872 2872 2872 2871 2870 2870 2870 2869 2867 2865 2863 2861 2860 2858 2856 2855 2853 2851 2850 2849 2848 2847 2846 2846 2847 2848 2848 2848 2849 2849 2850 2849 2848 2847 2847 2846 2845 2845 2845
2893 2892 2890 2889 2888 2887 2886 2885 2884 2884 2883 2883 2883 2883 2883 2883 2883 2882 2881 2880 2880 2879 2879 2879 2879 2879 2879 2879 2878 2877 2877 2876 2875 2874 2873 2872 2870 2869 2868 2867 2866 2866 2866 2865 2865 2864 2864 2864 2863 2863 2862 2861 2861 2860 2858 2856 2854 2852 2851 2849 2847 2845 2843 2841 2840 2839 2837 2837 2836 2835 2836 2837 2837 2836 2837 2838 2838 2837 2837 2837 2837 2836 2835 2835 2835
2886 2885 2883 2882 2880 2879 2878 2877 2876 2875 2874 2874 2874 2874 2874 2874 2875 2874 2873 2873 2872 2871 2870 2870 2870 2870 2870 2870 2870 2869 2869 2869 2868 2867 2865 2864 2863 2862 2861 2860 2859 2858 2858 2858 2858 2857 2857 2857 2856 2855 2854 2853 2852 2851 2850 2847 2845 2843 2842 2841 2839 2837 2835 2832 2830 2829 2827 2826 2826 2825 2825 2827 2827 2826 2826 2827 2827 2827 2827 2827 2826 2826 2826 2826 2825
2879 2878 2876 2874 2873 2872 2871 2870 2869 2868 2867 2866 2866 2866 2866 2866 2866 2866 2865 2864 2864 2863 2862 2862 2862 2862 2862 2861 2861 2861 2861 2860 2860 2859 2857 2856 2855 2854 2853 2853 2852 2851 2851 2850 2850 2850 2850 2849 2849 2848 2847 2845 2844 2843 2841 2839 2837 2835 2834 2832 2830 2828 2826 2824 2822 2820 2818 2817 2816 2816 2816 2817 2817 2816 2817 2817 2817 2817 2817 2817 2816 2816 2817 2816 2816
2872 2871 2869 2868 2866 2865 2864 2864 2863 2862 2862 2861 2860 2859 2858 2858 2858 2857 2856 2856 2856 2856 2855 2855 2855 2854 2853 2853 2853 2853 2852 2852 2851 2850 2849 2848 2848 2847 2847 2846 2846 2845 2844 2844 2843 2843 2842 2842 2841 2840 2839 2838 2836 2835 2833 2832 2830 2828 2826 2824 2822 2820 2818 2815 2813 2811 2810 2808 2807 2807 2807 2807 2807 2807 2807 2807 2807 2807 2808 2807 2807 2807 2807 2807 2807
2866 2865 2863 2862 2861 2860 2859 2858 2857 2857 2856 2855 2855 2854 2852 2851 2851 2850 2848 2848 2848 2847 2847 2847 2847 2846 2845 2845 2845 2845 2845 2844 2844 2843 2841 2840 2840 2840 2839 2839 2839 2839 2838 2837 2837 2836 2836 2835 2834 2833 2833 2831 2830 2829 2827 2825 2823 2821 2819 2817 2815 2812 2810 2808 2805 2803 2801 2800 2799 2798 2798 2798 2797 2798 2798 2798 2798 2798 2799 2799 2799 2798 2799 2799 2798
2862 2861 2859 2858 2857 2855 2854 2853 2852 2851 2851 2850 2849 2848 2847 2845 2845 2844 2842 2841 2840 2840 2839 2839 2839 2838 2837 2837 2837 2837 2837 2837 2837 2836 2835 2833 2833 2832 2832 2832 2832 2832 2831 2830 2830 2830 2829 2828 2827 2827 2826 2825 2823 2822 2821 2819 2817 2815 2813 2810 2808 2806 2804 2801 2799 2797 2795 2793 2791 2790 2790 2789 2789 2789 2789 2789 2789 2790 2790 2791 2790 2791 2791 2791 2791
2859 2857 2855 2854 2852 2851 2850 2848 2847 2846 2845 2844 2844 2843 2842 2840 2838 2837 2837 2836 2835 2833 2833 2832 2831 2830 2829 2830 2830 2830 2829 2829 2829 2829 2828 2827 2826 2826 2825 2825 2825 2824 2823 2823 2822 2822 2821 2821 2820 2819 2818 2817 2816 2815 2814 2812 2811 2809 2806 2804 2802 2800 2798 2795 2793 2791 2789 2787 2785 2784 2783 2782 2782 2782 2782 2781 2781 2781 2781 2781 2782 2783 2783 2783 2784
2855 2854 2852 2850 2848 2847 2845 2844 2842 2841 2840 2839 2838 2837 2837 2836 2834 2832 2831 2830 2830 2828 2827 2826 2825 2824 2823 2822 2823 2823 2823 2823 2822 2822 2821 2821 2820 2819 2819 2819 2818 2818 2817 2816 2816 2815 2815 2814 2813 2812 2812 2811 2809 2808 2807 2805 2804 2802 2800 2798 2796 2794 2792 2790 2788 2786 2784 2782 2780 2779 2777 2776 2776 2775 2774 2774 2773 2773 2773 2773 2774 2775 2775 2776 2777
2851 2850 2848 2846 2844 2842 2841 2839 2838 2836 2835 2834 2832 2831 2830 2830 2830 2829 2827 2826 2824 2824 2822 2821 2819 2818 2817 2816 2816 2815 2816 2816 2816 2816 2815 2814 2814 2813 2813 2813 2812 2812 2811 2811 2810 2809 2808 2808 2807 2806 2805 2804 2803 2802 2800 2799 2798 2796 2795 2793 2791 2789 2787 2785 2783 2781 2779 2777 2775 2774 2773 2771 2770 2769 2768 2768 2767 2767 2767 2767 2768 2769 2770 2770 2771
2848 2846 2843 2842 2840 2838 2836 2835 2833 2832 2830 2829 2828 2826 2825 2824 2824 2824 2824 2823 2821 2819 2818 2816 2814 2813 2812 2811 2810 2809 2808 2808 2809 2809 2809 2809 2808 2808 2807 2806 2806 2806 2806 2805 2805 2804 2803 2802 2801 2800 2799 2798 2797 2796 2795 2793 2792 2791 2789 2788 2786 2784 2782 2781 2779 2777 2775 2773 2771 2769 2768 2767 2766 2765 2764 2764 2763 2762 2762 2762 2762 2763 2764 2765 2766
2844 2842 2840 2837 2836 2834 2832 2830 2829 2827 2826 2824 2823 2822 2821 2819 2818 2817 2817 2817 2817 2816 2814 2812 2810 2809 2807 2806 2805 2804 2803 2802 2802 2802 2803 2803 2803 2802 2801 2800 2800 2799 2799 2799 2799 2798 2797 2796 2795 2794 2793 2792 2791 2790 2789 2788 2786 2785 2784 2783 2781 2780 2778 2777 2775 2773 2771 2770 2768 2766 2765 2764 2763 2762 2761 2761 2760 2759 2758 2758 2758 2759 2760 2760 2761
2841 2839 2836 2834 2832 2830 2828 2826 2825 2823 2822 2820 2819 2818 2817 2815 2814 2812 2811 2810 2810 2811 2810 2808 2807 2805 2803 2802 2800 2799 2798 2797 2796 2796 2796 2797 2797 2797 2796 2795 2794 2794 2793 2792 2792 2792 2791 2790 2789 2788 2788 2787 2786 2785 2784 2782 2781 2780 2779 2778 2777 2775 2774 2773 2771 2770 2768 2767 2765 2763 2762 2761 2760 2759 2758 2758 2757 2756 2756 2756 2756 2756 2756 2757 2758
2837 2835 2833 2831 2829 2826 2824 2823 2821 2819 2818 2816 2815 2814 2812 2811 2810 2808 2807 2805 2804 2804 2804 2803 2802 2801 2799 2797 2796 2794 2793 2792 2792 2791 2791 2791 2791 2791 2790 2790 2789 2789 2788 2787 2787 2786 2785 2784 2784 2783 2782 2781 2781 2780 2779 2777 2776 2776 2775 2774 2773 2771 2770 2769 2768 2766 2765 2764 2762 2761 2760 2758 2758 2757 2756 2755 2755 2754 2754 2753 2753 2754 2754 2754 2755
2833 2831 2829 2827 2825 2823 2821 2819 2817 2815 2814 2812 2811 2809 2808 2807 2805 2804 2802 2801 2800 2799 2798 2798 2797 2797 2795 2793 2792 2790 2789 2787 2786 2786 2785 2785 2785 2785 2784 2784 2784 2784 2783 2783 2782 2781 2780 2780 2779 2778 2777 2777 2776 2775 2774 2773 2772 2771 2770 2769 2768 2767 2766 2765 2764 2763 2761 2760 2759 2758 2757 2756 2755 2755 2754 2753 2753 2752 2752 2751 2751 2752 2752 2752 2753
2829 2827 2825 2823 2821 2819 2818 2816 2814 2812 2810 2809 2807 2806 2804 2803 2801 2800 2798 2797 2795 2794 2793 2792 2792 2791 2790 2789 2788 2786 2785 2784 2782 2781 2780 2779 2779 2778 2778 2778 2778 2778 2778 2778 2777 2777 2776 2775 2774 2774 2773 2772 2772 2771 2770 2769 2768 2767 2766 2765 2764 2763 2762 2761 2760 2759 2758 2757 2756 2755 2754 2754 2753 2752 2752 2751 2751 2751 2750 2750 2750 2750 2750 2751 2751
2826 2824 2821 2819 2817 2815 2813 2812 2810 2808 2807 2805 2804 2802 2801 2799 2798 2796 2794 2793 2791 2790 2789 2788 2787 2786 2785 2784 2783 2782 2781 2780 2779 2777 2776 2775 2774 2773 2772 2772 2772 2772 2772 2772 2772 2772 2771 2770 2770 2769 2769 2768 2767 2766 2766 2765 2764 2763 2762 2761 2761 2760 2759 2758 2757 2756 2755 2754 2753 2753 2752 2751 2750 2750 2750 2749 2749 2749 2749 2749 2749 2749 2749 2749 2750
2822 2820 2818 2816 2814 2812 2810 2808 2806 2805 2803 2801 2800 2798 2797 2795 2794 2792 2791 2789 2788 2786 2785 2783 2782 2781 2780 2779 2779 2778 2777 2776 2775 2774 2772 2771 2770 2769 2768 2767 2767 2767 2767 2767 2767 2767 2766 2766 2765 2764 2764 2763 2763 2762 2762 2761 2760 2760 2759 2758 2757 2756 2756 2755 2754 2753 2752 2751 2750 2750 2749 2748 2748 2747 2747 2747 2747 2747 2747 2747 2747 2747 2747 2748 2748
2817 2816 2814 2812 2810 2808 2806 2804 2803 2801 2799 2797 2796 2794 2793 2791 2790 2788 2787 2785 2784 2783 2781 2779 2778 2777 2776 2775 2774 2773 2772 2771 2771 2769 2768 2767 2766 2765 2764 2764 2763 2763 2762 2762 2762 2762 2761 2761 2760 2760 2759 2759 2758 2758 2757 2757 2757 2756 2756 2755 2754 2753 2753 2752 2751 2750 2749 2749 2748 2747 2746 2746 2745 2745 2744 2744 2744 2744 2744 2744 2745 2745 2745 2745 2746
2813 2811 2809 2808 2806 2804 2802 2800 2799 2797 2795 2793 2791 2790 2788 2787 2785 2784 2783 2781 2780 2779 2777 2776 2774 2773 2772 2771 2770 2768 2767 2767 2766 2765 2764 2763 2762 2761 2760 2760 2759 2758 2758 2757 2757 2757 2756 2756 2756 2755 2755 2754 2754 2754 2753 2753 2752 2752 2752 2751 2751 2750 2749 2749 2748 2747 2747 2746 2745 2745 2744 2744 2743 2743 2742 2742 2742 2741 2742 2742 2742 2742 2742 2743 2743
2808 2807 2805 2803 2801 2799 2797 2796 2794 2793 2791 2789 2787 2786 2784 2783 2781 2780 2778 2777 2776 2774 2773 2772 2771 2770 2768 2767 2766 2764 2763 2762 2761 2761 2760 2759 2758 2757 2757 2756 2755 2754 2753 2753 2752 2752 2752 2751 2751 2751 2750 2750 2749 2749 2749 2749 2748 2748 2748 2747 2747 2746 2746 2745 2745 2744 2744 2743 2743 2742 2742 2741 2741 2740 2740 2739 2739 2739 2739 2739 2739 2739 2740 2740 2741
2804 2802 2800 2798 2797 2795 2793 2791 2789 2787 2786 2785 2783 2781 2780 2778 2777 2776 2774 2773 2771 2770 2769 2768 2767 2766 2765 2764 2762 2761 2760 2759 2758 2757 2756 2755 2754 2753 2752 2752 2751 2750 2749 2748 2748 2748 2747 2747 2746 2746 2746 2745 2745 2745 2745 2744 2744 2743 2743 2743 2743 2742 2742 2742 2742 2741 2741 2740 2740 2739 2739 2738 2738 2737 2737 2737 2737 2737 2737 2737 2737 2737 2737 2737 2738
2799 2797 2795 2794 2792 2790 2788 2786 2784 2782 2781 2780 2778 2777 2775 2774 2772 2771 2770 2768 2767 2766 2765 2764 2763 2762 2761 2760 2759 2757 2756 2755 2754 2753 2752 2751 2750 2749 2748 2747 2747 2746 2745 2745 2744 2743 2743 2742 2742 2742 2741 2741 2741 2741 2740 2740 2740 2739 2739 2739 2738 2738 2738 2738 2738 2738 2737 2737 2736 2736 2736 2735 2735 2735 2734 2734 2734 2734 2734 2734 2735 2735 2735 2735 2736
2794 2792 2790 2789 2787 2785 2783 2782 2780 2778 2776 2774 2773 2772 2771 2769 2768 2766 2765 2764 2763 2762 2761 2760 2759 2758 2757 2757 2756 2754 2753 2752 2751 2750 2749 2748 2747 2746 2745 2744 2743 2742 2742 2741 2740 2740 2739 2739 2738 2738 2737 2737 2737 2737 2737 2737 2736 2736 2735 2735 2734 2734 2734 2734 2734 2734 2734 2733 2733 2733 2733 2732 2732 2732 2732 2732 2732 2732 2732 2732 2732 2733 2733 2733 2734
2789 2787 2786 2784 2782 2780 2778 2777 2775 2773 2771 2770 2768 2767 2765 2764 2763 2762 2761 2759 2758 2758 2757 2756 2755 2754 2754 2753 2752 2751 2750 2749 2748 2747 2746 2745 2744 2743 2742 2741 2740 2739 2738 2738 2737 2736 2736 2735 2734 2734 2733 2733 2733 2733 2733 2733 2733 2732 2732 2731 2731 2731 2731 2731 2731 2731 2731 2731 2730 2730 2730 2730 2729 2729 2729 2729 2729 2730 2730 2730 2730 2731 2731 2731 2732
2784 2783 2781 2779 2777 2775 2773 2772 2770 2768 2766 2765 2763 2762 2760 2759 2758 2757 2756 2755 2754 2753 2752 2752 2751 2750 2750 2749 2748 2748 2747 2746 2745 2744 2743 2742 2741 2740 2739 2738 2737 2736 2736 2735 2734 2733 2733 2732 2731 2731 2730 2730 2730 2730 2730 2730 2729 2729 2729 2728 2729 2729 2728 2728 2728 2728 2728 2728 2728 2728 2727 2727 2727 2727 2727 2727 2727 2727 2727 2728 2728 2728 2729 2729 2730
2779 2777 2776 2774 2772 2770 2768 2767 2765 2763 2761 2760 2759 2757 2756 2754 2753 2752 2751 2751 2750 2749 2748 2747 2747 2746 2746 2745 2745 2744 2743 2742 2742 2741 2740 2739 2738 2737 2736 2735 2735 2734 2733 2732 2732 2731 2730 2730 2729 2729 2728 2728 2728 2727 2727 2727 2727 2726 2726 2726 2726 2726 2726 2726 2726 2725 2726 2726 2725 2725 2725 2725 2725 2725 2725 2725 2725 2725 2726 2726 2726 2726 2727 2727 2728
2774 2772 2771 2769 2767 2765 2764 2762 2760 2758 2757 2755 2754 2752 2751 2750 2749 2747 2747 2746 2745 2744 2744 2743 2742 2742 2742 2741 2741 2740 2740 2739 2739 2738 2737 2736 2735 2734 2733 2733 2732 2731 2731 2730 2729 2728 2728 2727 2727 2726 2726 2725 2725 2725 2725 2724 2724 2723 2723 2724 2724 2724 2724 2723 2723 2723 2723 2723 2723 2723 2723 2723 2723 2723 2723 2723 2723 2723 2724 2724 2724 2724 2725 2725 2726
2769 2767 2766 2764 2762 2760 2759 2757 2755 2754 2752 2751 2749 2748 2747 2745 2744 2743 2742 2741 2741 2740 2739 2739 2738 2738 2737 2737 2737 2736 2736 2736 2735 2735 2734 2733 2732 2732 2731 2730 2729 2729 2728 2727 2727 2726 2726 2725 2725 2724 2724 2723 2723 2722 2722 2722 2722 2721 2721 2721 2721 2721 2721 2721 2721 2721 2721 2721 2721 2721 2721 2721 2721 2721 2721 2721 2721 2721 2722 2722 2722 2722 2723 2723 2723